Airfield :
LOGIN :

Register | Disclaimer

   EN    FR    IT 

 










Legend :    VFR   Marginal VFR   IFR   Intensive IFR   Very Intensive IFR
Visi :
Ceiling :
>= 8 km
>= 3000ft
5 to 8 km
1000 to 3000 ft
1500m to 5 km
500 to 1000 ft
800 to 1500m
200 to 500 ft
< 800m
< 200 ft
Symbols :   Thunderstorms  Fog  Heavy snow  Heavy precipitations  Wind > 20 kt
SIGMETs :     Misc.  Thunderstorms  Icing  Turbulence  Mountain Waves  Volcanic Ashes






- Airport Elevation : 978 ft
- IATA code : LNZ


LOWL - Linz

CURRENT METAR :
  • 191020Z 07010KT 9999 SCT026 17/11 Q1014 NOSIG

EXPIRED METARs :
  • 190950Z 09009KT 070V140 9999 SCT024 17/11 Q1014 NOSIG
  • 190920Z 08008KT 060V120 9999 FEW020 SCT030 16/11 Q1014 NOSIG
  • 190850Z 09007KT 9999 FEW016 SCT031 15/11 Q1015 NOSIG
  • 190820Z 09008KT 060V120 9999 FEW020 SCT033 15/11 Q1015 NOSIG
  • 190750Z 10007KT 9999 FEW015 SCT029 15/11 Q1015 NOSIG

TAF TAF LOWL
Valid from the 19 at 06:00 until the 20 at 06:00 UTC


190515Z 1906/2006 08003KT 9999 SCT040 TX20/1914Z TN09/1906Z
PROB40 1906/1907 1200 BCFG
TEMPO 1908/1917 10008KT
PROB40
TEMPO 2002/2006 2000 MIFG



MET'MAP, your aeronautical weather chart ! - Copyright ORBIFLY December 2007 - Disclaimer

ORBIFLY MET'MAP TEAM :

Programming & Development : Alexandra Zaïnal
Concept & original design : Baudouin d'Aumeries
Assistance for programming : Marc-Olivier Méhu
Technical & hardware support : Manuel Goepfert

Contact : metmap@orbifly.com




SOURCES & CREDITS :

   NOAA